Location: Newark
(33.6333°S, 78.8500°W)
Time: 19:22:54
(UTC+00:00)

Courier 1B Rocket - Visible Passes

Search period start: 19 October 2019 00:00
Search period end: 29 October 2019 00:00
Orbit: 920 x 1202 km, 28.2° (Epoch: 19 October)

Date Brightness Start Highest point End Pass type
(mag) Time Alt. Az. Time Alt. Az. Time Alt. Az.
19 Oct 6.1 01:46:12 10° W 01:52:43 33° NNW 01:53:10 32° NNW visible
20 Oct 6.0 00:44:36 10° W 00:51:42 41° NNW 00:55:55 22° NE visible
20 Oct 7.2 02:39:57 10° WNW 02:42:17 15° NW 02:42:17 15° NW visible
20 Oct 6.0 23:43:08 10° W 23:50:36 49° NNW 23:57:41 10° ENE visible
21 Oct 6.5 01:37:45 10° WNW 01:43:41 25° NNW 01:45:03 24° N visible
22 Oct 6.4 00:35:57 10° W 00:42:42 33° NNW 00:47:50 15° NNE visible
22 Oct 7.4 02:32:59 10° NW 02:34:13 11° NW 02:34:13 11° NW visible
23 Oct 6.9 01:29:41 10° WNW 01:34:35 18° NNW 01:37:01 16° N visible
24 Oct 6.8 00:27:30 10° WNW 00:33:38 26° NNW 00:39:34 10° NNE visible
25 Oct 7.3 01:22:35 10° NW 01:25:28 12° NNW 01:28:18 10° N visible
26 Oct 7.2 00:19:27 10° WNW 00:24:32 19° NNW 00:29:31 10° NNE visible
28 Oct 7.5 00:12:21 10° NW 00:15:24 13° NNW 00:18:26 10° N visible
